Wheeling, WV

4:54 PM EST on December 07, 2019 (GMT -0500)
Wheeling-Ohio County

Weather History for KHLG - October, 2019

Change the Weather History Date:

Sunday, October 27, 2019

  Actual Average Record
Temperature  
Mean Temperature 55 °F 50 °F  
Max Temperature 62 °F 59 °F 79 °F (1947)
Min Temperature 48 °F 41 °F 20 °F (1930)
Degree Days  
Heating Degree Days 10 15  
Month to date heating degree days 233 308  
Since 1 July heating degree days 234 409  
Cooling Degree Days 0 0  
Month to date cooling degree days 40 10  
Year to date cooling degree days 986 688  
Growing Degree Days 6 (Base 50)    
Moisture  
Dew Point 52 °F    
Average Humidity 78    
Maximum Humidity 96    
Minimum Humidity 60    
Precipitation  
Precipitation 0.61 in 0.09 in 1.50 in (1939)
Month to date precipitation 3.84 2.25  
Year to date precipitation 31.82 32.02  
Sea Level Pressure  
Sea Level Pressure 29.84 in    
Wind  
Wind Speed 12 mph (SW)    
Max Wind Speed 28 mph    
Max Gust Speed 41 mph    
Visibility 8 miles    
Events Rain    
T = Trace of Precipitation, MM = Missing Value Source: NWS Daily Summary

Daily Weather History Graph

Daily Weather History Graph

Search for Another Location

Airport or City:

Astronomy

Oct. 27, 2019 Rise Set
Actual Time 7:46 AM EDT 6:26 PM EDT
Civil Twilight 7:18 AM EDT 6:54 PM EDT
Nautical Twilight 6:46 AM EDT 7:25 PM EDT
Astronomical Twilight 6:14 AM EDT 7:57 PM EDT
Moon 6:52 AM EDT (10/27) 6:35 PM EDT (10/27)
Length of Visible Light 11h 36m
Length of Day
10h 40m
Waning Crescent, 0% of the Moon is Illuminated
Oct 27
Waning Crescent
Oct 27
New
Nov 4
First Quarter
Nov 12
Full
Nov 19
Last Quarter

Hourly Weather History & Observations

Time (EDT) Temp. Dew Point Humidity Pressure Visibility Wind Dir Wind Speed Gust Speed Precip Events Conditions
12:53 AM 57.0 °F 53.1 °F 87% 29.73 in 10.0 mi ESE 15.0 mph 23.0 mph 0.01 in Rain Light Rain
1:53 AM 59.0 °F 54.0 °F 83% 29.69 in 10.0 mi SE 16.1 mph 26.5 mph 0.00 in   Overcast
2:53 AM 61.0 °F 55.0 °F 81% 29.66 in 10.0 mi SE 13.8 mph - 0.00 in   Overcast
3:53 AM 61.0 °F 57.9 °F 90% 29.71 in 3.0 mi SW 12.7 mph 24.2 mph 0.20 in Rain Rain
4:00 AM 60.1 °F 57.9 °F 93% 29.71 in 2.5 mi WSW 9.2 mph 18.4 mph 0.04 in Rain Heavy Rain
4:03 AM 60.1 °F 57.9 °F 93% 29.71 in 3.0 mi SW 11.5 mph 18.4 mph 0.04 in Rain Heavy Rain
4:12 AM 60.1 °F 57.9 °F 93% 29.72 in 2.0 mi WSW 11.5 mph - 0.11 in Rain Heavy Rain
4:14 AM 60.1 °F 57.9 °F 93% 29.72 in 1.8 mi WSW 8.1 mph - 0.13 in Rain Heavy Rain
4:22 AM 60.1 °F 57.9 °F 93% 29.72 in 2.0 mi SW 6.9 mph - 0.16 in Rain Rain
4:29 AM 60.1 °F 57.9 °F 93% 29.72 in 2.5 mi WSW 9.2 mph - 0.19 in Rain Heavy Rain
4:43 AM 60.1 °F 59.0 °F 96% 29.72 in 1.8 mi SSW 9.2 mph - 0.28 in Rain Heavy Rain
4:53 AM 60.1 °F 59.0 °F 96% 29.73 in 2.5 mi South 9.2 mph - 0.33 in Rain Rain
4:58 AM 61.0 °F 59.0 °F 93% 29.72 in 3.0 mi South 9.2 mph - 0.02 in Rain Heavy Rain
5:53 AM 61.0 °F 57.9 °F 90% 29.70 in 10.0 mi South 13.8 mph - 0.08 in   Overcast
6:53 AM 61.0 °F 57.0 °F 87% 29.72 in 10.0 mi SSW 13.8 mph 26.5 mph N/A   Scattered Clouds
7:53 AM 61.0 °F 55.9 °F 83% 29.74 in 10.0 mi SW 15.0 mph 27.6 mph N/A   Clear
8:18 AM 61.0 °F 55.0 °F 81% 29.75 in 10.0 mi SW 15.0 mph 35.7 mph N/A   Overcast
8:53 AM 61.0 °F 54.0 °F 78% 29.78 in 10.0 mi SW 17.3 mph 25.3 mph N/A   Mostly Cloudy
9:17 AM 60.1 °F 54.0 °F 80% 29.78 in 10.0 mi SW 13.8 mph 28.8 mph N/A   Overcast
9:53 AM 60.1 °F 51.1 °F 72% 29.81 in 10.0 mi SW 17.3 mph 35.7 mph N/A   Overcast
10:03 AM 60.1 °F 51.1 °F 72% 29.81 in 10.0 mi WSW 17.3 mph 26.5 mph N/A   Overcast
10:19 AM 59.0 °F 50.0 °F 72% 29.82 in 10.0 mi WSW 17.3 mph 34.5 mph N/A   Overcast
10:53 AM 60.1 °F 50.0 °F 69% 29.83 in 10.0 mi WSW 17.3 mph 28.8 mph N/A   Mostly Cloudy
11:08 AM 60.1 °F 48.9 °F 67% 29.84 in 10.0 mi WSW 16.1 mph 28.8 mph N/A   Mostly Cloudy
11:42 AM 60.1 °F 48.0 °F 64% 29.86 in 10.0 mi WSW 18.4 mph 29.9 mph N/A   Overcast
11:53 AM 59.0 °F 48.0 °F 67% 29.87 in 10.0 mi West 13.8 mph 28.8 mph N/A   Overcast
12:19 PM 60.1 °F 48.9 °F 67% 29.87 in 10.0 mi West 17.3 mph 26.5 mph N/A   Overcast
12:53 PM 60.1 °F 48.0 °F 64% 29.89 in 10.0 mi WSW 13.8 mph 28.8 mph N/A   Overcast
1:36 PM 62.1 °F 48.0 °F 60% 29.89 in 10.0 mi WSW 16.1 mph 32.2 mph N/A   Mostly Cloudy
1:53 PM 61.0 °F 46.9 °F 60% 29.90 in 10.0 mi WSW 17.3 mph 31.1 mph N/A   Mostly Cloudy
2:53 PM 61.0 °F 46.9 °F 60% 29.92 in 10.0 mi WSW 20.7 mph 28.8 mph N/A   Overcast
3:53 PM 62.1 °F 48.0 °F 60% 29.94 in 10.0 mi West 12.7 mph 26.5 mph N/A   Overcast
4:53 PM 60.1 °F 48.0 °F 64% 29.97 in 10.0 mi West 13.8 mph 21.9 mph N/A   Mostly Cloudy
5:53 PM 59.0 °F 46.9 °F 64% 29.99 in 10.0 mi West 10.4 mph - N/A   Mostly Cloudy
6:34 PM 57.0 °F 46.9 °F 69% 30.01 in 10.0 mi WSW 11.5 mph - N/A   Mostly Cloudy
6:53 PM 55.9 °F 46.9 °F 72% 30.01 in 10.0 mi WSW 10.4 mph - N/A   Mostly Cloudy
7:53 PM 55.0 °F 46.0 °F 72% 30.04 in 10.0 mi WSW 5.8 mph - N/A   Overcast
8:48 PM 53.6 °F 46.4 °F 77% 30.04 in 10.0 mi WSW 5.8 mph - N/A   Partly Cloudy
8:53 PM 53.1 °F 46.0 °F 77% 30.05 in 10.0 mi WSW 5.8 mph - N/A   Partly Cloudy
9:53 PM 52.0 °F 46.0 °F 80% 30.07 in 10.0 mi WSW 3.5 mph - N/A   Clear
10:53 PM 51.1 °F 45.0 °F 80% 30.09 in 10.0 mi SSW 4.6 mph - N/A   Clear
11:53 PM 48.9 °F 45.0 °F 86% 30.10 in 10.0 mi South 6.9 mph - N/A   Clear